Regional Weather Roundup
Issued by NWS

Home | Current Version | Previous Version | Text Only | Print | Product List | Glossary Off
Versions: 1 2 3 4 5 6 7 8 9 10 11 12 13 14 15 16 17 18 19 20 21 22 23 24 25 26 27 28 29 30 31 32 33 34 35 36 37 38 39 40 41 42 43 44 45 46 47 48 49 50

000
ASUS44 KOUN 222310
RWROK

WEATHER ROUNDUP FOR OKLAHOMA
NATIONAL WEATHER SERVICE NORMAN OK
500 PM CST SUN JAN 22 2017

NOTE: "FAIR" INDICATES FEW OR NO CLOUDS BELOW 12,000 FEET WITH NO
      SIGNIFICANT WEATHER AND/OR OBSTRUCTIONS TO VISIBILITY.

OKZ001>007-009>012-014-015-017-230000-
NORTHWEST OKLAHOMA AND THE PANHANDLE

CITY           SKY/WX    TMP DP  RH WIND       PRES   REMARKS
GAGE           CLEAR     55  32  41 N15       29.90R
GUYMON         CLEAR     53  25  33 NW14      29.94R
ENID/WOODRING  CLEAR     55  36  47 NW16G23   29.82R
$$

OKZ016-021>023-033>039-044-045-230000-
SOUTHWEST OKLAHOMA

CITY           SKY/WX    TMP DP  RH WIND       PRES   REMARKS
LAWTON/REGL    CLEAR     61  32  33 N21G28    29.85R
LAWTON/FT SILL CLEAR     60  37  41 NW20      29.84R
FREDERICK      CLEAR     62  33  33 NW21G28   29.84R
CLINTON        CLEAR     56  33  42 NW16      29.89R
HOBART         CLEAR     59  35  40 N18       29.88R
ALTUS AFB      CLEAR     62  28  27 NW21      29.87R
$$

OKZ018>020-024>031-230000-
CENTRAL OKLAHOMA

CITY           SKY/WX    TMP DP  RH WIND       PRES   REMARKS
OKLAHOMA CITY  CLEAR     55  31  39 NW25      29.83R
OKC/WILEY POST CLEAR     55  33  43 NW17G26   29.83R
OKC/TINKER AFB CLEAR     55  31  39 N24G32    29.80R
STILLWATER     CLEAR     55  31  39 NW12G21   29.81R
GUTHRIE        CLEAR     55  31  39 N13G23    29.82R
$$

OKZ008-013-054>072-230000-
NORTHEAST OKLAHOMA

CITY           SKY/WX    TMP DP  RH WIND       PRES   REMARKS
TULSA          PTCLDY    57  33  40 N15       29.73R
TULSA/JONES    CLEAR     58  30  34 N7G24     29.74R
PONCA CITY     CLEAR     53  31  42 N14       29.81R
BARTLESVILLE   CLEAR     54  32  43 NW7G22    29.77R
MUSKOGEE       LGT RAIN  54  40  59 N18G24    29.73R
$$

OKZ032-040>043-046>053-073>077-230000-
SOUTH CENTRAL/SOUTHEAST OKLAHOMA

CITY           SKY/WX    TMP DP  RH WIND       PRES   REMARKS
ARDMORE/DWNTWN CLEAR     59  32  36 N14G22    29.80R
MCALESTER      PTCLDY    59  36  42 N23G32    29.73R
$$





USA.gov is the U.S. government's official web portal to all federal, state and local government web resources and services.